GFSNW_850_dewp_000.txt.gz
Dewpoint
0 0 -0 -2 -4 -4 1 1 2 -0 1 3 3 3 -1 -2 -1 -1 -0 -0 0 1 1 1 1 1 0 -2 -2 1 1 3 5 3 -0 -2 -0 2 1 5 5 4 5 5
1 1 0 -1 -3 -5 0 2 2 -0 -0 8 6 2 1 1 -0 0 -0 1 1 1 2 4 1 1 1 -1 -1 2 2 4 6 3 -0 -1 1 -0 0 2 4 6 8 5
3 2 1 -0 -2 -2 -3 2 8 2 2 4 3 3 4 4 3 2 2 1 2 2 3 2 3 2 1 2 1 1 1 4 5 6 3 2 4 2 2 3 7 6 6 4
3 3 2 1 -0 -1 -2 -2 4 1 7 5 4 4 3 4 4 3 1 3 3 3 5 3 3 2 1 1 2 3 3 6 3 3 2 2 3 3 2 3 4 6 5 3
5 4 3 3 2 1 -1 3 4 1 3 2 1 2 3 3 2 2 2 3 3 2 4 3 4 2 3 3 2 3 2 5 4 5 3 3 4 3 3 2 2 2 3 4
4 5 4 4 3 3 1 -0 -1 -0 2 3 2 2 2 1 2 2 2 2 3 5 3 2 2 2 2 2 3 4 4 5 7 7 3 4 7 5 3 2 1 2 4 2
4 4 4 4 4 4 3 2 1 1 8 4 3 -0 2 2 3 3 2 3 5 3 2 3 3 3 3 3 2 3 6 5 6 7 7 8 0 -3 -2 -0 -1 -1 -1 -0
6 5 4 4 5 4 4 4 3 2 6 4 3 2 2 3 3 3 3 3 3 3 4 6 6 6 6 4 1 2 3 6 7 8 7 3 1 -1 -0 1 1 -2 -2 -2
6 6 6 5 5 4 5 5 5 4 4 6 3 3 3 4 5 4 4 3 3 3 5 5 7 6 5 3 3 -0 1 4 6 8 7 7 2 -2 -3 -4 3 -2 -2 1
7 6 6 6 6 5 5 5 6 6 5 4 4 4 5 4 4 4 4 4 3 3 4 7 7 7 2 5 7 6 6 5 5 6 6 5 -0 -3 -2 4 4 0 1 2
6 6 6 6 6 6 6 5 5 6 6 5 5 4 4 4 4 6 4 4 5 4 5 6 6 6 5 6 3 5 6 7 6 6 7 7 -1 -3 3 1 2 1 1 2
5 6 6 6 6 6 6 6 6 6 6 6 5 5 4 4 4 4 4 3 3 4 6 5 5 5 4 6 6 2 6 5 6 3 4 -0 -0 0 1 1 2 2 2 2
4 4 5 6 6 6 6 6 6 6 6 6 6 5 2 4 3 3 5 4 4 4 3 4 3 5 4 6 5 5 3 2 4 5 2 1 1 2 2 2 2 2 3 3
3 4 5 4 5 6 6 6 6 6 6 5 5 4 4 3 3 3 3 4 5 5 5 5 3 4 4 5 4 4 3 3 4 5 4 2 2 1 1 2 2 2 2 3
4 3 5 5 5 6 6 6 5 5 5 4 4 4 3 3 3 3 4 4 4 6 5 3 4 4 4 4 4 5 4 4 5 5 2 2 3 1 1 1 2 3 3 3
5 5 4 4 4 5 5 4 4 5 4 5 2 4 4 3 3 2 2 4 5 5 5 4 5 5 4 3 5 3 2 1 1 2 1 1 1 1 1 2 3 3 2 3
5 4 5 5 5 4 5 3 3 3 4 3 1 2 3 3 2 4 4 4 4 4 4 4 4 3 4 3 4 1 1 0 -0 1 1 2 1 2 2 2 -1 -2 -1 1
2 2 2 2 3 3 3 3 2 2 3 2 1 2 1 1 2 2 2 3 3 4 3 3 3 2 3 4 1 -1 -3 -2 -1 -1 0 1 1 1 -4 -5 -5 -5 -3 -0
1 1 0 1 0 0 1 1 1 1 2 0 0 2 3 -0 2 2 2 2 3 3 2 3 2 4 4 -0 -3 -3 -2 -2 -1 0 0 -1 -6 -6 -5 -5 -4 -3 -1 -1
-1 -0 -0 -1 -0 -1 -1 -0 -0 -0 -0 -0 0 1 2 1 1 1 2 1 2 3 2 2 3 2 -1 -2 -2 -2 -1 -0 -0 -3 -5 -6 -5 -5 -4 -2 -1 -1 -1 -2
-2 -2 -2 -2 0 -1 -0 -1 0 -0 1 0 1 1 1 -1 1 2 1 3 2 3 1 3 2 1 -3 -3 -3 -3 -4 -6 -7 -7 -6 -5 -5 -3 -2 -3 -1 -1 -2 -3
-5 -2 -1 -1 -0 -1 -0 0 0 0 0 0 1 0 -0 -0 0 1 1 2 2 3 -2 0 1 -2 -4 -5 -7 -7 -6 -6 -6 -6 -7 -7 -5 -3 -4 -4 -4 -5 -7 -7
-3 -3 -1 -1 -1 -1 -2 -1 1 1 0 -1 -1 0 -0 -0 -0 -1 0 2 2 -1 0 1 -1 -5 -6 -7 -7 -6 -6 -6 -5 -5 -7 -6 -3 -4 -5 -5 -4 -6 -7 -13
-4 -2 -2 -2 -2 -2 -2 -1 -0 -1 -1 -1 -3 -3 -1 -1 -0 0 2 0 -1 1 0 0 -4 -6 -8 -8 -6 -6 -5 -5 -5 -7 -8 -5 -4 -4 -5 -5 -9 -14 -16 -15
-4 -4 -3 -2 -3 -3 -3 -3 -2 -2 -2 -3 -1 -2 -2 -1 -1 -0 -0 0 -0 -1 -1 -1 -5 -7 -7 -7 -7 -5 -4 -4 -4 -8 -7 -6 -5 -6 -9 -15 -15 -15 -14 -14
-4 -5 -4 -4 -3 -3 -4 -4 -3 -5 -3 -3 -3 -4 -4 -3 -1 -1 -1 -1 -4 -3 -1 -4 -6 -6 -6 -6 -6 -6 -4 -3 -4 -6 -7 -5 -5 -9 -15 -13 -14 -14 -12 -10
-5 -5 -5 -4 -4 -4 -3 -6 -5 -5 -3 -3 -3 -3 -4 -5 -2 -2 -3 -3 -2 -5 -5 -5 -6 -6 -6 -6 -6 -6 -3 -3 -3 -4 -5 -3 -5 -13 -14 -11 -13 -12 -10 -9

GFSNW_850_dewp_003.txt.gz
Dewpoint
-0 0 -1 -2 -4 -4 0 4 3 -0 -0 4 2 3 -1 -2 -1 -1 -1 -1 -0 1 1 2 1 1 1 -1 -1 2 2 3 6 4 -0 -2 -1 1 2 5 5 5 7 6
0 0 -0 -1 -3 -3 0 2 2 1 2 9 6 1 1 1 -1 0 -0 1 1 1 2 4 2 2 1 0 -0 2 1 4 6 2 1 -0 1 0 0 1 4 7 9 6
2 1 1 -0 -2 -2 -4 3 10 4 4 4 2 3 3 3 2 1 1 1 2 2 3 2 3 2 1 2 1 2 1 3 5 6 4 2 4 2 1 3 8 7 7 5
3 2 2 1 -0 -1 1 1 3 1 7 5 3 3 2 3 4 2 2 2 2 2 5 4 2 2 1 1 1 2 3 6 4 3 2 1 2 2 1 2 3 6 4 3
4 3 2 2 2 0 4 4 4 3 3 2 2 2 2 2 1 1 2 2 2 2 3 3 4 2 2 3 1 3 2 6 5 6 3 2 4 2 1 1 1 1 1 2
4 4 4 3 2 2 4 -0 -1 6 3 2 2 2 1 0 1 2 1 1 2 5 3 2 2 2 2 2 3 5 5 6 7 6 3 5 7 5 3 2 -0 0 3 1
4 4 4 4 4 4 5 4 4 1 7 5 2 1 1 1 2 3 2 2 3 3 4 3 3 3 2 2 2 2 6 7 6 7 8 8 0 -2 -2 -1 -2 -2 -2 -2
5 4 3 3 4 4 5 4 5 5 7 4 3 2 2 2 3 3 2 3 3 5 4 7 7 6 5 4 1 1 2 6 7 8 6 4 2 -1 -0 1 1 -2 -1 -1
6 6 6 6 5 3 4 5 4 6 3 6 3 2 2 4 5 4 5 3 4 5 5 6 7 6 4 2 -0 0 1 5 6 8 8 7 1 -1 -2 -2 3 0 1 1
6 6 6 6 6 5 5 7 5 6 6 6 4 3 4 4 4 5 4 4 5 4 7 5 6 7 1 5 7 7 6 6 6 6 7 4 0 -2 -2 5 4 2 2 2
6 6 6 6 6 6 5 7 5 6 7 6 6 5 5 4 4 6 4 4 5 6 7 6 6 7 4 4 2 4 5 7 7 7 7 8 -2 -1 4 4 2 1 2 2
6 7 6 6 6 6 6 6 5 6 6 6 6 6 5 4 4 3 4 4 3 4 6 6 6 6 5 6 6 1 4 3 6 4 4 0 0 1 1 1 1 3 3 2
5 5 5 5 6 7 7 6 6 7 7 7 6 6 2 5 5 5 5 5 4 3 3 4 5 5 5 6 5 5 4 2 5 5 2 1 0 1 2 3 3 1 2 2
4 5 5 5 4 5 6 6 6 7 6 5 5 4 3 5 6 6 5 5 5 5 5 6 2 4 4 5 4 4 3 3 4 5 3 2 3 3 1 2 1 1 2 2
4 5 4 5 5 5 5 6 6 6 6 4 4 3 3 4 5 5 5 5 5 5 6 4 4 4 4 4 4 5 3 4 5 5 3 4 2 -0 -1 0 2 2 1 -2
4 5 5 5 5 5 5 4 5 6 6 5 3 3 3 3 3 4 5 5 5 5 5 5 4 4 4 4 5 3 2 2 3 4 3 2 0 -1 0 1 1 -3 -5 -5
5 6 5 5 5 5 5 4 3 3 5 4 3 2 2 3 4 4 4 5 5 5 5 5 4 3 4 3 4 2 0 1 0 1 1 -1 -0 0 0 -3 -5 -5 -5 -5
5 5 5 5 5 4 3 3 3 3 4 3 2 2 2 2 3 3 4 4 4 4 4 4 3 2 3 4 1 -1 -3 -3 -4 -5 -3 0 0 -1 -5 -5 -6 -5 -4 -2
2 3 3 3 2 2 2 2 2 2 2 0 -0 3 4 1 3 2 2 2 2 3 4 3 1 3 5 1 -3 -3 -4 -4 -1 -0 -1 -3 -4 -5 -6 -6 -6 -3 -2 -1
1 1 1 0 1 1 1 0 0 0 0 -0 0 1 3 1 2 1 1 1 2 3 2 0 4 2 -2 -2 -3 -4 -2 -1 -3 -4 -4 -5 -5 -5 -6 -5 -3 -1 -2 -2
-1 -2 -1 -0 -1 0 0 -0 -0 -0 0 -0 0 1 2 1 2 2 1 2 3 3 -1 2 3 1 -3 -4 -3 -3 -4 -5 -5 -5 -5 -5 -6 -6 -5 -3 -3 -5 -6 -5
-2 -2 -1 -1 -0 -1 0 1 0 1 1 -0 1 0 -0 1 1 2 2 2 2 2 -0 1 2 -3 -4 -5 -5 -6 -6 -6 -6 -5 -5 -5 -6 -5 -2 -4 -9 -5 -5 -7
-4 -5 -1 -0 -1 -0 -2 -1 1 2 1 -0 -0 -0 -1 -1 -0 -0 1 2 3 0 2 1 -1 -3 -6 -8 -8 -8 -8 -6 -6 -6 -5 -5 -6 -5 -2 -4 -5 -4 -6 -12
-6 -2 -2 -1 -1 -3 -3 -2 1 -1 -1 -1 -1 -2 -2 -1 0 0 1 -0 -0 1 -0 -0 -3 -7 -8 -7 -6 -5 -6 -6 -6 -5 -4 -5 -7 -7 -4 -4 -5 -7 -16 -15
-3 -2 -2 -3 -3 -1 -1 -2 -1 -1 -2 -2 -2 -2 -2 -3 -2 -1 -1 -1 -1 -2 -4 -2 -6 -5 -5 -5 -5 -6 -7 -6 -5 -4 -3 -4 -6 -7 -4 -4 -11 -14 -12 -15
-5 -5 -3 -3 -2 -3 -3 -2 -2 -2 -1 -2 -2 -3 -3 -4 -2 -2 -2 -4 -7 -3 -1 -6 -7 -8 -7 -6 -6 -6 -8 -7 -4 -4 -3 -3 -4 -5 -4 -5 -13 -10 -13 -12
-4 -4 -4 -2 -3 -2 -2 -3 -2 -3 -2 -4 -4 -4 -5 -10 -5 -5 -7 -5 -2 -7 -7 -6 -8 -8 -7 -5 -5 -6 -6 -4 -3 -3 -2 -3 -3 -4 -4 -10 -11 -10 -12 -10

GFSNW_850_dewp_006.txt.gz
Dewpoint
-4 -0 -1 -2 -3 -3 1 5 6 -1 0 6 4 3 -1 -2 -1 -1 -1 -0 0 1 1 2 2 1 1 0 -0 2 2 4 7 4 0 -2 -1 1 2 8 7 6 7 6
-2 0 -0 -1 -3 -3 3 3 4 2 5 10 7 1 0 -0 -1 0 0 1 1 1 2 4 3 2 1 1 -0 3 2 5 6 3 2 0 2 1 1 2 6 7 9 7
0 1 1 0 -1 -2 0 4 8 5 5 3 3 2 2 3 2 1 1 1 1 2 3 2 3 2 1 2 2 2 2 3 5 7 5 3 4 2 1 3 6 5 5 4
3 2 2 1 0 -2 3 2 4 2 9 4 3 2 1 3 3 2 1 2 1 2 5 4 2 1 2 1 1 2 3 6 4 3 2 3 3 3 2 3 2 4 3 2
4 4 3 1 1 -0 4 6 4 3 2 1 2 1 1 1 1 -0 1 2 1 1 3 3 4 3 3 3 1 3 3 7 6 6 4 3 3 3 3 2 1 1 1 2
5 4 4 3 1 1 5 4 1 7 3 3 4 3 0 0 0 2 1 1 2 4 3 3 3 3 3 3 4 5 5 7 6 7 4 5 6 4 2 2 0 0 3 0
5 5 4 4 3 2 5 6 5 1 8 5 3 1 0 1 1 2 2 1 2 2 4 4 3 4 2 2 1 1 5 6 5 7 6 7 1 -1 -1 1 0 -0 -1 -2
5 4 4 3 3 3 6 5 6 5 5 5 3 2 2 1 1 2 2 1 4 5 3 6 5 7 6 5 0 1 1 6 7 7 7 4 3 0 1 2 2 -1 1 2
5 5 5 5 4 3 4 8 5 7 3 6 3 2 2 5 6 5 3 4 4 5 6 6 6 6 4 2 0 1 3 5 8 9 7 7 2 -1 -2 -1 4 3 3 3
6 6 6 6 6 6 5 7 6 7 6 5 6 3 5 3 4 6 5 5 5 4 6 6 6 6 1 3 6 6 7 6 6 6 7 5 1 -1 0 6 7 4 4 4
6 6 6 6 6 6 6 6 6 6 7 6 6 6 5 4 4 7 4 5 6 6 6 6 6 6 5 4 2 4 4 6 6 5 7 7 -0 1 5 3 3 3 4 4
6 6 6 6 6 6 6 6 7 6 7 7 7 6 5 5 5 5 4 5 4 5 6 5 6 5 6 4 5 0 4 3 4 3 4 0 0 1 2 2 3 3 3 2
5 6 6 6 6 6 7 7 6 7 7 6 6 5 3 5 5 5 6 6 5 4 4 5 4 5 5 6 6 5 3 1 4 4 1 1 1 2 2 3 3 3 3 3
4 4 4 5 5 5 6 6 7 7 6 5 6 5 4 2 4 6 6 6 6 6 5 6 3 4 4 5 4 4 3 2 3 3 2 2 2 2 2 3 2 3 2 -0
4 4 4 4 4 5 5 5 5 6 6 5 5 4 3 3 4 5 5 5 5 6 6 4 4 4 4 4 4 4 2 3 4 4 2 3 3 2 2 2 3 2 -3 -5
4 4 4 4 5 5 5 5 4 6 6 5 2 4 4 4 3 4 4 5 6 6 6 5 5 4 3 4 4 1 1 1 1 2 1 1 1 1 1 2 -1 -4 -6 -5
5 5 5 4 5 6 5 5 4 3 4 5 4 3 3 3 3 4 4 4 5 6 6 5 5 4 4 2 5 2 2 1 0 -0 0 1 1 1 -0 -4 -4 -5 -4 -2
3 5 5 6 5 5 4 4 4 4 4 4 3 2 2 2 3 4 4 4 4 5 5 4 4 3 4 4 2 1 -0 -2 -3 -1 -1 -1 -3 -4 -5 -5 -6 -5 -2 -1
4 4 5 5 3 3 3 3 3 3 3 2 -0 2 3 2 3 3 2 2 2 3 3 3 3 3 4 2 0 -1 -2 -2 -1 -1 -3 -4 -4 -5 -6 -6 -5 -3 -1 -6
2 3 2 2 1 1 1 1 1 1 1 0 -0 1 3 2 2 1 1 1 1 3 2 2 4 3 1 -0 -1 -3 -2 -4 -5 -5 -5 -6 -6 -6 -6 -5 -4 -2 -4 -8
1 -1 -0 0 1 1 1 -0 -0 -0 0 -1 0 1 2 2 2 2 1 1 1 3 1 3 3 2 -2 -3 -3 -4 -5 -6 -6 -6 -6 -6 -6 -6 -6 -5 -3 -3 -8 -7
0 -1 -1 -0 -0 0 1 1 0 1 1 1 1 1 1 1 1 1 1 1 2 1 -0 1 1 -2 -5 -4 -5 -6 -7 -8 -7 -6 -7 -9 -8 -7 -5 -6 -4 -2 -4 -4
-1 -4 -1 -1 -1 0 -0 0 2 2 1 0 0 0 0 -0 -1 0 -0 1 -0 0 2 0 -1 -4 -4 -6 -8 -7 -7 -7 -7 -10 -9 -7 -6 -6 -5 -5 -7 -2 -4 -4
-7 -2 -1 -1 -1 -2 -2 -1 0 -1 -1 -0 -0 -1 -0 -1 -1 -1 -0 -1 1 1 0 -1 -1 -5 -6 -5 -5 -5 -5 -6 -7 -7 -7 -7 -5 -4 -3 -4 -6 -4 -4 -7
-4 -3 -2 -1 -3 -0 -1 -1 -1 -1 -3 -1 -1 -1 -2 -2 -1 -2 -1 -1 -1 -2 -2 -1 -5 -5 -6 -6 -6 -6 -6 -6 -5 -6 -6 -5 -5 -4 -3 -3 -3 -3 -5 -12
-5 -3 -2 -2 -2 -1 -3 -2 -1 -1 -1 -2 -3 -3 -4 -4 -3 -3 -3 -3 -5 -4 0 -5 -6 -6 -6 -7 -9 -7 -5 -5 -5 -6 -4 -3 -3 -2 -2 -3 -3 -4 -7 -7
-5 -3 -4 -2 -3 -2 -4 -3 -2 -2 -2 -3 -4 -4 -4 -7 -4 -5 -6 -4 -2 -6 -6 -7 -7 -7 -7 -7 -8 -8 -7 -6 -5 -5 -4 -4 -4 -4 -4 -3 -4 -6 -7 -9

GFSNW_850_dewp_009.txt.gz
Dewpoint
-6 -2 -1 -2 -2 0 5 6 7 -2 6 8 7 5 0 -2 -1 -1 -0 1 3 3 3 4 4 4 3 0 0 4 2 4 5 4 1 1 -1 3 3 7 8 6 6 7
-6 -3 -1 -1 -2 -1 2 5 5 3 5 7 5 1 2 2 2 1 2 2 2 1 3 4 4 3 2 0 2 3 2 4 5 4 2 2 3 2 3 3 2 5 6 5
-5 -2 0 -0 -1 -2 2 4 3 4 5 4 3 3 3 3 2 1 1 1 1 3 4 3 3 3 3 1 2 2 1 4 4 6 5 4 5 3 3 4 3 5 5 3
-2 0 1 0 -0 -1 5 3 4 3 6 5 4 4 2 4 5 2 1 2 2 3 4 4 4 4 4 3 2 2 3 4 5 4 4 4 3 3 3 4 3 5 3 3
0 2 2 1 0 1 4 5 6 3 2 1 3 2 3 3 1 1 3 2 3 3 4 5 6 5 5 4 3 4 4 4 5 6 5 5 5 3 3 2 2 3 2 2
2 3 3 3 1 4 5 3 3 6 4 3 3 4 2 3 1 2 1 2 3 2 4 4 4 3 3 3 4 4 4 4 4 7 4 4 4 2 2 2 0 1 3 2
4 4 4 3 3 2 6 5 6 2 3 5 4 3 1 1 2 2 2 2 2 5 4 4 3 2 2 4 4 3 2 2 3 7 4 7 2 -1 -1 1 1 1 4 4
5 5 4 4 3 3 4 5 6 3 3 7 5 3 3 2 2 3 2 2 4 4 3 3 3 2 1 -0 2 4 3 2 5 6 6 4 3 2 1 1 2 4 4 4
5 5 4 4 3 3 4 5 7 7 3 3 4 3 3 3 3 4 4 5 4 3 5 4 4 2 2 2 1 3 3 3 4 4 5 4 1 -0 3 2 5 4 4 5
5 5 5 5 5 5 4 6 6 7 6 5 5 5 4 4 4 3 5 5 4 4 3 5 5 3 3 3 3 1 2 2 4 2 4 3 1 -1 2 4 5 4 4 4
6 5 5 5 6 5 5 5 6 6 7 6 5 5 5 5 5 3 5 4 4 4 4 4 4 4 3 3 1 1 2 2 4 2 6 4 1 -0 2 1 2 1 3 3
6 6 6 6 6 6 6 5 5 6 7 6 6 5 5 5 5 6 5 4 5 4 2 2 3 4 4 4 5 0 3 2 2 3 2 0 -0 -0 0 1 2 3 3 4
6 6 6 6 6 6 6 6 6 6 6 6 5 3 2 4 5 5 5 5 4 4 3 4 3 5 3 5 5 3 3 1 3 2 1 0 1 1 1 1 2 4 3 3
5 6 6 6 6 6 6 6 6 6 6 6 4 4 2 2 3 3 5 5 5 5 5 6 2 3 4 4 3 4 3 3 3 3 1 1 1 1 2 3 3 2 -0 -3
5 4 4 4 5 5 5 5 5 5 6 5 4 4 3 3 3 3 3 4 5 5 5 5 3 4 4 4 3 3 3 3 3 4 1 2 2 2 2 2 0 -2 -4 -3
3 4 5 5 5 5 5 5 5 4 5 6 3 4 4 4 3 3 3 4 5 5 5 5 5 4 3 3 4 2 1 1 2 2 2 1 2 2 2 -1 -3 -3 -3 -4
4 4 5 5 5 5 5 5 4 4 4 5 4 3 3 3 3 3 3 4 5 5 5 6 5 5 5 2 5 2 2 2 1 1 1 2 1 -2 -4 -3 -4 -5 -4 -3
3 4 4 5 5 5 4 5 5 4 5 4 3 2 2 2 3 3 4 4 4 5 5 4 4 4 4 3 3 2 1 0 0 -0 -1 -3 -3 -4 -5 -5 -5 -5 -4 -3
1 3 4 5 4 3 3 3 4 4 4 3 1 2 3 2 3 3 3 3 2 3 2 3 3 2 3 3 2 1 -0 -0 -2 -3 -4 -4 -4 -4 -5 -6 -6 -5 -4 -3
3 3 4 2 2 2 2 2 2 2 2 1 -0 1 2 2 2 2 1 2 1 2 1 2 2 2 1 -0 -1 -0 -4 -5 -4 -3 -5 -6 -7 -8 -9 -7 -6 -6 -5 -3
2 1 1 1 1 1 1 0 -0 -0 -1 -1 -0 1 2 2 1 1 1 1 0 2 -1 -1 -1 0 -1 -3 -2 -2 -4 -3 -4 -6 -7 -11 -12 -11 -11 -9 -7 -5 -5 -5
-0 -0 0 0 0 0 0 -0 -1 -0 -0 0 0 0 1 1 1 1 0 1 0 -0 -1 0 -1 -1 -5 -4 -5 -6 -6 -8 -8 -7 -8 -13 -10 -11 -8 -6 -5 -4 -4 -5
-0 -3 -1 -1 -1 -0 -1 -1 1 -1 0 0 0 0 -0 -0 -1 0 -1 0 0 -1 0 -1 -2 -3 -5 -6 -6 -6 -5 -6 -6 -7 -9 -7 -8 -12 -9 -6 -5 -3 -3 -4
-6 -3 -4 -3 -2 -3 -2 -1 -0 -1 -0 0 -0 -0 -0 -2 -2 -2 -2 -3 -1 0 -1 -3 -3 -4 -4 -4 -5 -6 -8 -9 -8 -6 -5 -7 -11 -10 -6 -4 -3 -3 -3 -3
-8 -4 -4 -3 -1 -1 -1 -1 -1 -1 -1 -2 -3 -3 -3 -2 -4 -2 -4 -4 -2 -3 -4 -4 -5 -5 -6 -6 -7 -7 -8 -8 -7 -7 -8 -11 -8 -7 -4 -5 -5 -4 -3 -4
-7 -3 -3 -3 -2 -2 -2 -2 -2 -1 -4 -4 -3 -3 -6 -6 -5 -4 -4 -4 -4 -5 -4 -5 -7 -7 -7 -8 -8 -8 -9 -9 -8 -10 -11 -8 -6 -5 -4 -3 -4 -3 -4 -4
-7 -3 -4 -3 -3 -2 -2 -3 -2 -1 -7 -5 -3 -7 -6 -5 -6 -5 -4 -5 -6 -5 -7 -8 -9 -9 -9 -8 -8 -9 -9 -9 -9 -10 -9 -6 -5 -4 -3 -3 -4 -4 -5 -5

GFSNW_850_dewp_012.txt.gz
Dewpoint
-6 -5 -2 -2 -2 3 5 6 2 1 6 5 6 2 -1 -1 -1 -0 1 2 3 3 3 4 4 4 3 0 1 4 2 3 4 4 1 1 1 3 4 5 6 5 6 5
-6 -7 -2 -1 -1 -1 4 5 4 4 5 4 2 1 2 2 1 2 2 2 2 1 3 4 3 3 1 -0 2 2 1 3 4 2 0 2 3 2 2 3 2 5 4 4
-6 -6 -2 -1 -1 0 3 2 4 4 4 6 2 2 3 3 2 1 1 1 2 2 4 3 2 4 2 2 2 2 1 3 3 4 2 4 5 4 2 3 3 5 5 4
-5 -4 -1 -1 -1 0 4 3 2 4 4 4 3 3 3 4 4 1 1 2 2 3 3 3 5 5 4 3 2 2 2 4 4 4 4 4 4 4 4 4 3 5 4 3
-5 -3 0 0 -0 1 4 4 5 3 2 3 1 2 2 3 1 2 2 4 3 3 4 4 5 4 4 4 3 3 3 4 5 5 4 5 6 4 4 3 3 3 3 2
-4 -1 1 1 0 4 2 3 5 3 4 3 2 2 2 2 2 2 1 2 2 1 4 4 4 4 3 3 4 3 3 3 3 5 4 5 5 3 2 1 1 1 3 2
-0 1 2 2 1 4 3 4 3 2 1 2 2 3 2 2 2 3 2 1 1 3 4 3 3 2 1 1 2 4 2 2 2 5 5 7 2 0 -0 1 1 1 4 4
2 3 3 3 3 2 5 4 4 1 1 5 5 3 3 2 2 3 3 3 3 4 3 1 0 0 -1 -2 4 4 3 3 4 4 6 4 3 1 1 3 3 3 4 3
5 4 4 3 3 3 3 3 4 4 2 2 4 3 3 2 2 3 5 4 4 4 3 1 1 1 1 2 2 3 2 1 1 4 5 5 0 -1 2 3 4 4 3 3
5 5 4 4 3 2 3 4 4 6 5 5 6 4 3 4 4 2 4 5 4 4 3 2 2 2 2 3 1 -0 2 3 1 -0 3 1 -0 -1 0 0 1 1 1 2
5 6 5 5 5 4 4 5 5 5 5 5 6 5 5 5 5 2 4 4 4 3 4 3 2 4 2 3 1 1 1 2 4 2 4 4 0 0 2 0 1 1 2 4
5 6 6 6 6 6 5 5 5 5 6 6 5 5 4 5 6 5 5 4 3 4 2 2 1 3 3 2 4 1 3 1 1 1 1 -1 -0 -0 0 1 1 2 4 4
5 6 6 6 6 6 6 6 5 5 6 5 5 3 2 4 5 6 6 5 5 5 3 3 2 4 2 5 4 4 2 1 2 2 0 0 0 1 1 1 3 3 2 -0
5 5 6 6 6 6 6 6 6 6 6 6 4 3 3 1 3 3 4 5 5 5 5 5 2 3 4 4 4 4 3 4 3 3 2 2 1 1 2 3 3 0 -1 -1
5 6 6 6 6 6 6 6 6 6 6 4 4 4 3 2 2 2 3 4 4 4 5 5 3 4 3 3 2 3 3 3 4 4 1 2 2 2 3 2 0 -0 -0 -4
5 5 5 5 5 5 5 5 5 4 5 6 3 4 4 4 4 3 3 2 4 5 5 5 5 4 3 3 4 1 1 2 2 3 3 3 2 1 1 1 -0 -3 -5 -6
5 5 4 5 6 5 5 5 4 3 5 5 5 3 3 3 4 3 3 3 3 4 5 6 5 5 5 2 5 2 2 2 2 2 2 2 2 -1 -1 -1 -3 -5 -6 -5
3 4 5 5 5 5 5 5 5 4 5 5 3 2 2 2 3 3 4 4 4 5 5 4 4 4 4 4 2 2 2 2 1 1 0 -1 -2 -2 -4 -5 -8 -7 -6 -6
2 4 4 4 4 4 4 4 4 4 5 3 2 2 3 2 3 3 3 3 2 3 2 3 3 1 4 3 2 2 1 1 -1 -3 -3 -3 -6 -12 -14 -14 -14 -7 -6 -5
3 4 4 3 3 3 3 2 3 3 2 2 0 1 2 2 3 2 2 1 1 2 1 2 2 2 1 0 0 1 -2 -3 -3 -3 -2 -3 -10 -12 -16 -14 -12 -10 -8 -6
2 2 1 1 1 2 2 1 1 0 -0 -0 -0 1 1 2 1 1 1 1 0 1 -2 1 -0 0 -1 -2 -3 -3 -3 -3 -3 -3 -5 -9 -11 -11 -13 -14 -13 -8 -7 -5
0 0 0 1 1 0 0 -0 -1 -1 -1 -0 -1 -0 1 1 1 1 -0 0 -0 -0 -2 -1 -1 -3 -4 -5 -4 -4 -4 -5 -6 -6 -6 -7 -9 -8 -12 -8 -6 -5 -6 -5
0 -1 -0 -1 -1 -2 -3 -0 -0 -1 -1 0 1 0 0 0 -0 -0 -3 -2 -3 -2 -0 -2 -3 -3 -4 -4 -5 -6 -7 -8 -9 -11 -9 -8 -7 -9 -10 -7 -7 -5 -5 -6
-7 -5 -3 -4 -3 -3 -3 -2 -1 -1 -0 0 0 -0 -1 -2 -3 -2 -2 -4 -2 -1 -0 -3 -4 -5 -6 -7 -9 -12 -10 -9 -10 -12 -9 -8 -10 -11 -14 -10 -7 -4 -4 -3
-10 -7 -4 -3 -2 -1 -1 -2 -1 -1 -1 -2 -3 -3 -3 -3 -5 -3 -4 -5 -2 -2 -5 -5 -5 -7 -9 -10 -10 -9 -9 -11 -9 -9 -9 -9 -9 -10 -9 -8 -5 -4 -3 -4
-10 -5 -4 -2 -2 -2 -2 -2 -2 -1 -3 -3 -4 -5 -7 -7 -7 -6 -5 -5 -5 -6 -6 -6 -7 -8 -8 -7 -7 -8 -11 -11 -9 -9 -9 -8 -7 -7 -7 -6 -5 -4 -5 -5
-7 -4 -3 -3 -3 -3 -3 -3 -2 -2 -6 -6 -4 -7 -7 -7 -8 -6 -5 -6 -7 -6 -8 -8 -7 -7 -8 -10 -11 -10 -8 -8 -8 -9 -8 -7 -6 -6 -6 -5 -5 -4 -5 -4